FW7110 Weather Reports


Display with metric or nautical units.
time (UTC)temp
F
wind
direction
speed
MPH
gust
MPH
rain 1hr
in
rain 24hr
in
rain mn
in
humidity
%
barometer
mb
20260504060105 46 0 0.0 0.0 0.00 0.00 0.00 88 1007.7
20260504050123 51 0 0.0 0.0 0.00 0.00 0.00 81 1008.3
20260504044555 52 0 0.0 0.0 0.00 0.00 0.00 78 1008.4
20260504043101 54 0 0.0 1.0 0.00 0.00 0.00 75 1008.5
20260504041601 55 0 0.0 1.0 0.00 0.00 0.00 73 1008.6
20260504040113 56 0 0.0 1.0 0.00 0.00 0.00 71 1008.6
20260504034614 56 0 0.0 1.0 0.00 0.00 0.00 70 1008.6
20260504033105 57 0 0.0 0.0 0.00 0.00 0.00 69 1008.9
20260504031606 59 0 0.0 2.0 0.00 0.00 0.00 66 1008.8
20260504030114 60 262 1.0 3.0 0.00 0.00 0.00 64 1008.8
20260504024555 60 237 1.0 4.0 0.00 0.00 0.00 63 1008.9
20260504023055 61 256 1.0 4.0 0.00 0.00 0.00 61 1008.8
20260504021606 61 257 2.0 5.0 0.00 0.00 0.00 60 1008.7
20260504020057 62 245 2.0 6.0 0.00 0.00 0.00 59 1008.6
20260504014557 63 240 2.0 4.0 0.00 0.00 0.00 58 1008.7
20260504013055 63 250 2.0 6.0 0.00 0.00 0.00 56 1008.6
20260504011554 64 238 3.0 6.0 0.00 0.00 0.00 55 1008.4
20260504010056 65 250 2.0 7.0 0.00 0.00 0.00 54 1008.3
20260504004555 65 285 3.0 8.0 0.00 0.00 0.00 53 1008.3
20260504003053 66 252 3.0 7.0 0.00 0.00 0.00 52 1008.3
20260504001554 66 230 3.0 6.0 0.00 0.00 0.00 52 1008.4
20260504000135 67 243 2.0 9.0 0.00 0.00 0.00 51 1008.3
20260503234556 67 252 4.0 8.0 0.00 0.00 0.00 50 1008.4
20260503233055 67 246 4.0 10.0 0.00 0.00 0.00 49 1008.5
20260503231556 67 248 7.0 13.0 0.00 0.00 0.00 48 1008.4
20260503230059 68 260 5.0 10.0 0.00 0.00 0.00 47 1008.7
20260503224554 68 276 4.0 14.0 0.00 0.00 0.00 47 1008.6
20260503223056 69 245 7.0 15.0 0.00 0.00 0.00 45 1008.7
20260503221552 68 219 7.0 21.0 0.00 0.00 0.00 45 1008.8
20260503220059 68 250 6.0 14.0 0.00 0.00 0.00 45 1009.0
20260503214555 67 276 6.0 14.0 0.00 0.00 0.00 45 1009.1
20260503213055 67 252 8.0 19.0 0.00 0.00 0.00 43 1009.1
20260503211556 67 236 9.0 17.0 0.00 0.00 0.00 43 1009.1
20260503210054 66 250 10.0 22.0 0.00 0.00 0.00 43 1009.2
20260503204556 67 90 9.0 21.0 0.00 0.00 0.00 43 1009.3
20260503203101 67 232 9.0 18.0 0.00 0.00 0.00 41 1009.4
20260503201600 66 249 7.0 24.0 0.00 0.00 0.00 43 1010.0
20260503200057 67 300 7.0 19.0 0.00 0.00 0.00 41 1009.9
20260503194558 68 260 9.0 24.0 0.00 0.00 0.00 39 1010.2
20260503193059 68 250 7.0 19.0 0.00 0.00 0.00 39 1010.2
20260503191555 67 246 7.0 25.0 0.00 0.00 0.00 40 1010.3
20260503190053 66 250 11.0 20.0 0.00 0.00 0.00 40 1010.2
20260503184611 66 180 7.0 20.0 0.00 0.00 0.00 41 1010.4
20260503183100 65 214 5.0 19.0 0.00 0.00 0.00 42 1010.7
20260503181556 65 209 6.0 17.0 0.00 0.00 0.00 43 1010.8
20260503180058 64 205 4.0 19.0 0.00 0.00 0.00 44 1011.2
20260503173058 62 253 4.0 11.0 0.00 0.00 0.00 48 1012.4
20260503171611 62 224 4.0 13.0 0.00 0.00 0.00 47 1012.8
20260503170104 61 179 4.0 12.0 0.00 0.00 0.00 50 1013.7
20260503090117 45 206 1.0 6.0 0.00 0.00 0.00 68 1017.2
20260503081601 44 209 1.0 4.0 0.00 0.00 0.00 68 1017.2
20260503080108 44 222 1.0 5.0 0.00 0.00 0.00 68 1017.4
20260503071612 42 219 0.0 4.0 0.00 0.00 0.00 70 1017.4